Weather History for KESC - January, 2013

Change the Weather History Date:

Thursday, January 10, 2013

  Actual Average Record
Temperature  
Mean Temperature 26 °F -  
Max Temperature 37 °F 24 °F 42 °F (1975)
Min Temperature 15 °F 8 °F -9 °F (1988)
Degree Days  
Heating Degree Days 39    
Moisture  
Dew Point 23 °F    
Average Humidity 78    
Maximum Humidity 100    
Minimum Humidity 65    
Precipitation  
Precipitation 0.00 in - - ()
Sea Level Pressure  
Sea Level Pressure 30.34 in    
Wind  
Wind Speed 5 mph (SSE)    
Max Wind Speed 14 mph    
Max Gust Speed 17 mph    
Visibility 10 miles    
Events      
Averages and records for this station are not official NWS values.
T = Trace of Precipitation, MM = Missing Value Source: NWS Daily Summary

Daily Weather History Graph

Daily Weather History Graph

Search for Another Location

Airport or City:

Trip Planner

Search our weather history database for the weather conditions in past years. The results will help you decide how hot, cold, wet, or windy it might be!

Date:

Astronomy

Jan. 10, 2013 Rise Set
Actual Time 8:27 AM EST 5:24 PM EST
Civil Twilight 7:54 AM EST 5:58 PM EST
Nautical Twilight 7:16 AM EST 6:35 PM EST
Astronomical Twilight 6:41 AM EST 7:11 PM EST
Moon 7:06 AM EST (1/10) 4:32 PM EST (1/10)
Length of Visible Light 10h 04m
Length of Day
8h 57m
Waning Crescent, 2% of the Moon is Illuminated
Jan 10
Waning Crescent
Jan 11
New
Jan 18
First Quarter
Jan 26
Full
Feb 3
Last Quarter

Hourly Weather History & Observations

Time (EST) Temp. Windchill Dew Point Humidity Pressure Visibility Wind Dir Wind Speed Gust Speed Precip Events Conditions
12:15 AM 24.8 °F 16.9 °F 17.6 °F 74% 30.42 in 10.0 mi West 6.9 mph - N/A   Clear
12:35 AM 26.6 °F 19.1 °F 17.6 °F 69% 30.41 in 10.0 mi WNW 6.9 mph - N/A   Clear
12:55 AM 26.6 °F 19.1 °F 19.4 °F 74% 30.40 in 10.0 mi NW 6.9 mph - N/A   Clear
1:15 AM 26.6 °F 20.0 °F 17.6 °F 69% 30.39 in 10.0 mi WNW 5.8 mph - N/A   Clear
1:35 AM 24.8 °F 19.1 °F 17.6 °F 74% 30.40 in 10.0 mi WNW 4.6 mph - N/A   Clear
1:55 AM 24.8 °F 20.5 °F 17.6 °F 74% 30.39 in 10.0 mi NNW 3.5 mph - N/A   Clear
2:15 AM 19.4 °F - 12.2 °F 74% 30.40 in 10.0 mi Calm Calm - N/A   Clear
2:35 AM 24.8 °F 20.5 °F 19.4 °F 80% 30.39 in 10.0 mi NNE 3.5 mph - N/A   Clear
2:55 AM 24.8 °F - 17.6 °F 74% 30.40 in 10.0 mi Calm Calm - N/A   Clear
3:15 AM 19.4 °F - 10.4 °F 68% 30.42 in 10.0 mi Calm Calm - N/A   Clear
3:35 AM 17.6 °F 12.3 °F 12.2 °F 79% 30.44 in 10.0 mi South 3.5 mph - N/A   Clear
3:55 AM 21.2 °F 16.4 °F 19.4 °F 93% 30.44 in 10.0 mi WSW 3.5 mph - N/A   Clear
4:15 AM 17.6 °F 12.3 °F 14.0 °F 86% 30.46 in 10.0 mi SW 3.5 mph - N/A   Clear
4:35 AM 23.0 °F 14.7 °F 17.6 °F 80% 30.47 in 10.0 mi SSW 6.9 mph - N/A   Clear
4:55 AM 24.8 °F 16.9 °F 19.4 °F 80% 30.47 in 10.0 mi SSW 6.9 mph - N/A   Clear
5:15 AM 23.0 °F 18.4 °F 17.6 °F 80% 30.46 in 10.0 mi West 3.5 mph - N/A   Clear
5:35 AM 23.0 °F 18.4 °F 17.6 °F 80% 30.46 in 10.0 mi WNW 3.5 mph - N/A   Clear
5:55 AM 21.2 °F - 14.0 °F 74% 30.47 in 10.0 mi Calm Calm - N/A   Clear
6:15 AM 17.6 °F - 14.0 °F 86% 30.47 in 10.0 mi Calm Calm - N/A   Clear
6:35 AM 19.4 °F - 19.4 °F 100% 30.48 in 10.0 mi Calm Calm - N/A   Clear
6:55 AM 21.2 °F - 17.6 °F 86% 30.48 in 10.0 mi Calm Calm - N/A   Clear
7:35 AM 15.8 °F - 10.4 °F 79% 30.49 in 10.0 mi Calm Calm - N/A   Clear
7:55 AM 17.6 °F - 14.0 °F 86% 30.49 in 10.0 mi Calm Calm - N/A   Clear
8:35 AM 17.6 °F - 14.0 °F 86% 30.49 in 10.0 mi Calm Calm - N/A   Clear
8:55 AM 17.6 °F - 12.2 °F 79% 30.48 in 10.0 mi Calm Calm - N/A   Clear
9:35 AM 17.6 °F - 12.2 °F 79% 30.47 in 10.0 mi Calm Calm - N/A   Clear
10:15 AM 23.0 °F - 19.4 °F 86% 30.46 in 8.0 mi Calm Calm - N/A   Clear
10:55 AM 28.4 °F - 21.2 °F 74% 30.45 in 10.0 mi Calm Calm - N/A   Clear
11:15 AM 32.0 °F 26.4 °F 24.8 °F 75% 30.45 in 10.0 mi SSE 5.8 mph - N/A   Clear
11:35 AM 32.0 °F 25.6 °F 24.8 °F 75% 30.43 in 10.0 mi SSE 6.9 mph - N/A   Clear
11:55 AM 33.8 °F 28.6 °F 24.8 °F 70% 30.43 in 10.0 mi SSE 5.8 mph - N/A   Clear
12:15 PM 33.8 °F 27.7 °F 24.8 °F 70% 30.41 in 10.0 mi South 6.9 mph - N/A   Clear
12:35 PM 35.6 °F 29.2 °F 24.8 °F 65% 30.40 in 10.0 mi South 8.1 mph - N/A   Clear
12:55 PM 35.6 °F 28.6 °F 24.8 °F 65% 30.39 in 10.0 mi South 9.2 mph - N/A   Clear
1:15 PM 35.6 °F 28.0 °F 24.8 °F 65% 30.38 in 10.0 mi SSW 10.4 mph - N/A   Clear
1:35 PM 35.6 °F 29.2 °F 24.8 °F 65% 30.36 in 10.0 mi South 8.1 mph - N/A   Clear
1:55 PM 35.6 °F 28.0 °F 24.8 °F 65% 30.35 in 10.0 mi SSE 10.4 mph - N/A   Clear
2:15 PM 35.6 °F 28.0 °F 26.6 °F 70% 30.34 in 10.0 mi SSE 10.4 mph - N/A   Clear
2:35 PM 35.6 °F 29.9 °F 26.6 °F 70% 30.34 in 10.0 mi SSE 6.9 mph - N/A   Clear
2:55 PM 35.6 °F 29.2 °F 26.6 °F 70% 30.33 in 10.0 mi SSE 8.1 mph - N/A   Clear
3:15 PM 35.6 °F 30.7 °F 28.4 °F 75% 30.32 in 10.0 mi SSE 5.8 mph - N/A   Clear
3:35 PM 35.6 °F 30.7 °F 30.2 °F 81% 30.30 in 10.0 mi SE 5.8 mph - N/A   Clear
3:55 PM 35.6 °F 30.7 °F 30.2 °F 81% 30.30 in 8.0 mi SSE 5.8 mph - N/A   Clear
4:15 PM 33.8 °F 28.6 °F 30.2 °F 87% 30.30 in 7.0 mi SE 5.8 mph - N/A   Clear
4:35 PM 35.6 °F 29.9 °F 30.2 °F 81% 30.30 in 7.0 mi SSE 6.9 mph - N/A   Mostly Cloudy
4:55 PM 35.6 °F 29.9 °F 30.2 °F 81% 30.30 in 5.0 mi SSE 6.9 mph - N/A   Overcast
5:15 PM 35.6 °F 29.9 °F 30.2 °F 81% 30.30 in 10.0 mi South 6.9 mph - N/A   Mostly Cloudy
5:35 PM 37.4 °F 30.8 °F 32.0 °F 81% 30.29 in 10.0 mi South 9.2 mph - N/A   Mostly Cloudy
5:55 PM 37.4 °F 32.1 °F 32.0 °F 81% 30.29 in 10.0 mi South 6.9 mph - N/A   Mostly Cloudy
6:15 PM 35.6 °F 30.7 °F 30.2 °F 81% 30.27 in 10.0 mi SSE 5.8 mph - N/A   Partly Cloudy
6:35 PM 35.6 °F 30.7 °F 30.2 °F 81% 30.26 in 10.0 mi SE 5.8 mph - N/A   Clear
6:55 PM 33.8 °F 27.7 °F 30.2 °F 87% 30.24 in 8.0 mi ESE 6.9 mph - N/A   Clear
7:15 PM 33.8 °F 28.6 °F 30.2 °F 87% 30.24 in 10.0 mi ESE 5.8 mph - N/A   Clear
7:35 PM 35.6 °F 29.9 °F 30.2 °F 81% 30.23 in 10.0 mi SE 6.9 mph - N/A   Clear
7:55 PM 33.8 °F 28.6 °F 30.2 °F 87% 30.21 in 10.0 mi ESE 5.8 mph - N/A   Clear
8:15 PM 33.8 °F 29.6 °F 30.2 °F 87% 30.19 in 10.0 mi ESE 4.6 mph - N/A   Clear
8:35 PM 33.8 °F 30.8 °F 30.2 °F 87% 30.18 in 10.0 mi ESE 3.5 mph - N/A   Clear
8:55 PM 33.8 °F 29.6 °F 28.4 °F 81% 30.17 in 10.0 mi ESE 4.6 mph - N/A   Clear
9:15 PM 35.6 °F 29.2 °F 28.4 °F 75% 30.16 in 10.0 mi SE 8.1 mph - N/A   Clear
9:35 PM 35.6 °F 28.0 °F 30.2 °F 81% 30.14 in 10.0 mi ESE 10.4 mph - N/A   Partly Cloudy
10:15 PM 37.4 °F 29.8 °F 30.2 °F 75% 30.10 in 10.0 mi SE 11.5 mph 17.3 mph N/A   Overcast
10:35 PM 37.4 °F 29.8 °F 30.2 °F 75% 30.09 in 10.0 mi SE 11.5 mph - N/A   Overcast
10:55 PM 35.6 °F 27.5 °F 28.4 °F 75% 30.07 in 10.0 mi ESE 11.5 mph - N/A   Overcast
11:15 PM 35.6 °F 28.0 °F 30.2 °F 81% 30.06 in 10.0 mi ESE 10.4 mph - N/A   Overcast
11:35 PM 35.6 °F 26.6 °F 30.2 °F 81% 30.04 in 10.0 mi ESE 13.8 mph - N/A   Overcast
11:55 PM 35.6 °F 27.5 °F 30.2 °F 81% 30.02 in 10.0 mi ESE 11.5 mph - N/A   Overcast